Location: Recife
(8.0585°S, 34.8848°W)
Time: 05:03:33
(UTC-03:00)

Courier 1B - Pass Details

Date: 14 April 2026
Orbit: 962 x 1209 km, 28.3° (Epoch: 14 May)

Event Time Altitude Azimuth Distance (km) Brightness Sun altitude
Rises 12:01:45 0° 228° (SW) 4,051 10.7 69.5°
Reaches altitude 10° 12:05:44 10° 210° (SSW) 3,048 10.1 69.0°
Maximum altitude 12:10:37 18° 169° (S) 2,434 9.6 68.3°
Drops below altitude 10° 12:15:19 10° 128° (SE) 2,926 9.9 67.6°
Sets 12:19:01 0° 109° (ESE) 3,830 10.4 67.0°
